ECMWFNIL_700_spd_132.txt.gz
Wind_Speed
29 29 31 32 33 33 35 36 38 39 40 39 38 36 33 32 31 32 32 32 33 33 32 33 33 32 32 32 33 33 33 32 31 31 31 32 30 30 32 32 33 35
30 30 30 30 30 30 32 34 36 38 40 40 40 38 36 35 34 34 33 32 33 33 33 33 33 33 33 33 33 34 33 32 32 31 33 33 32 33 34 34 35 37
31 30 28 27 27 27 28 31 34 37 38 40 40 40 39 37 36 35 34 34 34 33 33 33 33 33 33 33 34 34 34 33 33 33 35 35 35 35 36 37 38 39
31 29 27 26 26 26 28 31 32 34 36 38 39 40 40 39 38 37 36 36 35 34 34 34 33 33 33 33 34 35 34 34 34 35 37 38 37 38 39 40 41 42
30 29 28 27 27 28 30 31 32 32 33 35 38 40 41 41 40 38 37 37 37 36 35 34 34 33 33 34 35 35 35 35 35 36 39 39 39 40 41 42 43 43
30 30 30 30 30 31 32 32 31 31 33 34 36 39 41 41 41 39 39 38 37 37 36 36 35 35 35 35 36 37 37 37 37 38 39 39 40 41 42 43 43 43
31 32 32 32 32 33 32 31 31 31 32 33 35 37 39 41 41 40 39 39 38 38 38 38 38 37 37 38 39 40 40 40 40 40 40 40 41 42 42 43 43 43
33 34 34 33 33 32 31 30 30 30 32 33 33 35 37 40 41 41 40 40 40 40 39 40 40 40 40 41 41 42 41 41 41 41 42 41 42 42 42 42 43 43
35 35 34 33 32 31 30 30 30 30 31 33 32 33 36 39 40 41 42 42 42 42 42 42 42 42 43 43 43 43 43 43 42 42 42 41 41 41 41 42 43 43
35 34 34 33 31 30 30 30 31 31 32 33 32 33 35 37 39 41 42 43 43 43 43 43 42 42 42 42 42 42 41 41 40 39 39 39 39 40 40 41 42 41
33 32 32 32 31 31 31 31 32 32 32 33 33 33 34 35 37 39 41 42 41 41 40 39 38 37 37 36 36 35 35 35 35 35 36 37 37 37 38 38 38 37
30 30 31 31 32 32 32 32 33 33 33 33 33 33 33 34 36 37 38 38 37 35 34 33 32 32 31 30 30 30 31 31 32 32 33 34 33 34 35 35 35 35
28 29 31 32 33 34 33 33 34 33 33 33 32 32 33 33 34 34 34 34 32 31 31 30 30 29 29 29 28 28 29 29 29 29 30 31 31 32 33 33 33 33
30 30 32 32 33 34 34 34 34 33 32 32 31 32 32 31 32 31 31 31 31 30 30 29 29 28 28 28 27 27 28 28 28 29 30 31 31 31 31 31 31 32
32 32 33 33 33 33 33 33 33 32 31 31 31 31 31 31 30 30 30 30 30 30 29 28 28 27 27 27 27 27 28 28 29 30 31 31 31 29 28 28 29 28
33 34 34 34 34 33 33 33 32 32 32 32 32 32 31 30 29 29 29 29 29 29 28 28 27 27 27 27 28 28 29 29 30 30 30 30 28 27 26 26 24 21
34 34 34 34 33 33 33 33 32 32 32 32 32 32 31 30 30 30 30 29 29 28 28 28 27 27 28 28 28 29 29 30 31 31 30 28 27 26 25 23 19 17
34 34 34 33 33 33 32 33 33 33 32 32 32 32 31 31 31 30 29 28 28 28 28 28 28 29 29 29 29 29 29 30 30 30 29 28 27 25 22 19 18 18
35 35 34 33 32 32 32 33 33 32 32 32 32 31 31 30 29 29 28 28 28 28 28 28 29 29 29 29 28 28 28 28 28 28 27 26 24 21 20 19 19 20
34 34 34 33 33 33 33 33 32 32 31 31 31 30 29 28 28 28 28 28 28 28 28 29 29 29 29 28 27 27 26 27 26 25 25 23 21 20 20 21 21 21
35 33 32 33 34 33 33 32 31 31 30 30 30 28 28 28 28 28 28 28 28 28 29 29 29 29 28 27 26 26 26 25 25 24 24 24 24 24 23 23 23 22
36 34 32 32 34 34 33 31 30 30 30 30 29 28 28 29 29 29 28 28 29 29 30 30 29 28 27 26 26 26 25 25 24 25 26 26 27 27 25 24 24 23
38 37 35 33 33 33 32 31 30 29 29 30 30 30 29 30 30 29 29 29 30 31 31 29 28 28 27 26 26 26 26 26 25 26 26 26 26 26 25 24 24 23
39 39 38 36 35 34 33 32 31 30 31 31 31 31 31 31 31 30 30 30 31 32 31 29 28 28 27 26 27 27 27 27 26 26 27 26 25 25 25 25 25 24
42 41 40 39 37 36 35 34 34 34 34 34 34 33 33 33 33 32 31 32 33 33 32 30 29 29 28 27 27 28 29 28 28 28 28 27 26 24 24 24 25 24
45 43 43 42 39 39 39 38 37 38 39 38 38 37 36 36 35 34 34 34 34 35 33 32 31 30 29 28 27 29 30 30 29 29 30 29 27 25 24 23 23 23

ECMWFNIL_700_spd_135.txt.gz
Wind_Speed
35 38 38 37 35 33 32 32 33 35 36 38 38 38 38 39 39 40 41 40 41 40 39 39 39 38 38 39 39 39 38 37 36 36 37 36 34 33 33 32 33 33
33 35 36 35 33 31 30 30 31 33 35 36 37 37 38 40 41 42 42 43 43 42 40 40 40 39 39 39 39 39 38 36 36 36 36 35 33 33 32 32 33 34
32 33 34 33 32 31 31 32 33 34 35 35 35 36 38 40 41 43 44 44 45 44 43 42 41 40 40 39 40 39 38 36 35 35 36 34 32 32 32 33 34 35
31 32 32 32 32 32 33 35 35 34 35 34 34 35 37 39 41 43 44 45 46 45 45 44 43 42 41 40 40 40 38 36 35 35 35 33 32 32 32 33 34 36
30 31 32 33 33 34 35 37 36 35 35 34 34 36 37 39 41 42 43 45 46 47 46 46 44 43 42 41 41 40 38 37 35 34 35 33 32 32 33 34 36 37
29 30 32 33 34 36 38 38 36 35 35 34 35 36 37 39 40 41 42 44 46 47 47 47 46 44 43 43 42 41 39 37 35 35 36 35 34 34 35 37 38 39
29 30 31 33 35 36 37 37 36 35 35 36 36 37 37 39 39 39 41 42 45 47 48 47 46 45 44 44 43 42 40 39 37 37 37 37 37 38 39 39 41 41
30 31 32 33 34 35 35 35 36 36 37 38 38 38 38 39 39 39 40 41 43 46 47 47 47 45 44 44 43 42 41 41 39 39 39 40 41 42 42 42 43 43
29 31 32 34 34 35 35 36 37 38 39 39 39 39 39 39 38 39 40 41 43 44 46 47 47 46 45 44 43 43 43 42 41 41 43 44 44 44 44 44 45 45
26 28 30 32 33 34 35 36 37 38 38 39 39 38 38 38 38 39 40 41 42 43 44 45 46 45 45 44 44 44 44 43 43 44 45 46 45 44 44 43 43 43
23 25 28 29 30 32 33 34 35 36 37 38 38 38 38 38 39 39 40 40 41 41 43 44 45 45 45 45 45 46 46 45 45 45 44 43 42 41 40 39 39 39
23 25 27 29 30 31 32 33 34 35 37 38 38 38 38 38 39 39 39 40 39 40 41 42 44 45 46 46 46 47 46 44 42 41 40 38 37 37 36 36 37 36
27 27 29 30 30 31 32 33 34 35 36 37 38 38 39 38 38 38 38 38 38 39 40 41 43 44 45 45 45 44 42 40 38 37 36 35 35 35 35 35 34 34
32 32 33 33 32 33 33 34 35 35 36 37 38 39 39 38 38 38 38 38 38 39 40 40 42 42 42 42 41 39 37 36 36 35 35 35 35 35 33 33 33 32
38 36 36 36 35 35 35 35 35 36 37 38 38 38 38 38 38 38 38 38 38 38 39 39 39 39 38 38 37 35 35 35 35 34 35 35 34 33 33 33 33 32
43 40 39 38 37 36 36 36 36 37 38 38 38 38 37 37 37 38 38 37 37 37 37 37 37 37 36 36 35 35 35 35 35 34 34 34 34 33 33 33 33 32
46 44 41 39 39 38 37 37 37 37 38 38 38 38 37 38 38 38 38 38 37 37 37 37 37 36 36 35 35 35 34 34 34 34 34 34 34 34 33 33 33 32
47 47 43 39 39 38 38 39 38 38 38 38 38 38 38 39 39 39 39 39 39 38 37 37 37 36 36 35 34 34 34 34 34 33 33 34 35 35 35 34 33 31
49 49 44 39 38 39 38 39 39 38 37 37 37 38 38 39 39 39 40 40 39 39 39 38 38 37 36 35 34 33 33 33 34 33 34 35 36 36 34 33 31 29
51 50 45 40 39 39 38 38 38 38 38 37 37 38 38 38 39 39 40 40 39 39 39 38 38 36 35 34 33 32 33 34 34 34 34 35 35 34 32 30 29 27
52 50 46 42 41 40 38 37 37 38 38 37 37 38 38 38 38 38 38 38 38 38 38 37 36 34 34 33 32 33 34 34 34 34 34 34 33 32 31 29 27 26
50 48 46 43 42 42 39 36 36 37 38 38 38 37 37 37 37 36 36 35 35 35 35 34 33 33 33 32 33 34 34 34 34 33 33 33 32 32 31 30 28 27
47 46 45 44 44 44 41 36 35 36 38 38 38 37 36 36 36 35 34 33 33 33 33 32 32 32 33 33 34 34 35 34 34 32 32 33 33 33 32 31 30 28
47 45 44 44 45 46 43 38 36 36 38 39 38 37 36 35 35 35 34 34 33 33 33 32 32 33 34 35 35 35 35 34 33 32 33 33 34 34 33 31 30 28
49 47 45 44 45 46 45 43 40 39 39 39 39 39 37 37 37 36 35 35 35 34 34 34 33 34 35 37 36 36 35 34 33 34 33 33 35 35 33 32 31 29
51 49 48 46 45 46 47 46 45 44 42 41 41 41 41 40 40 39 38 38 37 37 36 36 35 35 37 38 37 37 36 34 34 35 34 33 35 36 35 34 33 31

ECMWFNIL_700_spd_138.txt.gz
Wind_Speed
38 39 39 38 38 38 39 40 40 41 41 41 40 38 39 40 43 45 46 45 46 46 45 45 46 46 46 46 46 46 46 45 44 44 45 45 43 42 42 40 40 39
37 37 37 37 37 37 38 38 38 39 38 38 38 37 38 39 41 44 46 47 48 48 47 48 48 48 48 48 48 47 47 45 44 44 45 45 43 42 41 40 39 39
34 34 34 34 34 35 35 36 36 36 36 36 35 36 37 37 39 41 44 46 48 48 49 50 50 50 50 50 50 50 49 47 45 44 45 45 43 42 41 39 39 38
33 32 32 31 32 33 34 35 35 34 34 34 34 35 36 36 37 39 40 42 44 46 48 49 51 51 52 52 52 53 52 49 47 46 46 45 43 42 41 39 38 37
33 33 32 31 31 31 32 33 33 33 33 33 34 35 36 37 38 39 40 42 43 45 46 47 48 50 51 52 54 54 53 52 50 48 48 46 43 42 41 39 38 37
33 34 34 32 31 30 31 31 32 33 34 33 34 36 37 39 40 41 42 43 44 45 46 47 47 48 50 51 53 54 54 53 52 49 49 47 43 42 41 40 39 39
34 34 33 32 31 31 31 31 31 33 34 35 37 38 39 41 42 42 42 43 44 45 46 46 47 48 49 51 52 53 53 53 52 50 49 47 44 43 41 40 40 41
35 34 32 31 31 31 31 31 31 32 33 36 37 38 40 41 42 42 43 44 45 45 46 46 47 48 49 50 51 51 51 52 52 51 49 47 45 43 42 41 42 43
34 33 32 31 31 31 31 31 31 32 34 36 37 38 39 41 42 42 43 45 46 46 46 47 47 47 48 49 50 50 50 50 50 50 49 47 45 44 42 43 44 45
31 31 31 30 30 30 31 32 33 35 36 37 38 39 40 41 42 43 44 46 47 47 46 46 46 46 47 48 48 48 49 49 48 48 49 47 46 44 43 44 46 47
27 28 28 27 27 27 28 30 32 35 36 38 39 40 41 42 43 44 45 46 47 46 45 45 44 45 45 46 46 46 47 47 47 47 48 47 47 45 45 46 47 48
25 26 26 26 26 26 26 27 29 32 34 36 38 39 40 41 42 43 44 45 45 45 44 44 44 44 44 44 44 44 45 46 46 46 47 48 48 47 47 48 49 49
26 27 28 28 28 28 28 28 28 30 31 33 35 37 39 39 39 40 41 42 43 44 44 43 43 43 43 43 42 42 44 44 45 46 47 48 49 49 49 49 50 49
31 33 33 34 34 33 32 32 32 32 33 33 34 36 37 38 39 39 40 41 42 42 43 43 43 43 42 42 41 41 42 43 45 46 47 48 49 49 49 49 49 47
38 40 41 42 40 38 37 36 36 36 36 36 36 37 37 38 39 40 41 41 41 41 42 42 43 43 42 41 41 41 42 43 44 46 47 48 48 49 48 47 46 44
42 45 47 48 45 42 40 39 40 40 40 39 39 39 38 39 40 41 42 42 41 41 41 42 42 42 41 41 40 41 41 42 43 45 46 47 47 46 46 44 42 42
46 49 51 51 48 45 43 42 43 43 42 40 40 41 41 41 42 43 43 43 43 43 42 42 42 41 41 41 40 41 41 41 42 43 44 45 44 43 43 42 41 42
49 52 54 53 52 49 48 47 46 46 45 43 42 43 43 43 44 45 45 44 44 44 43 43 42 42 42 42 41 41 41 42 42 43 43 42 41 42 42 42 42 42
52 53 54 54 54 53 52 51 50 49 48 47 46 45 46 46 46 47 47 46 45 45 44 43 42 42 42 42 42 42 42 42 43 43 43 42 42 42 43 42 41 40
55 55 55 55 54 53 52 52 52 52 51 51 49 47 46 46 47 49 48 47 46 45 45 44 43 42 42 43 43 44 43 43 44 44 44 43 43 43 43 41 39 39
54 55 55 55 55 54 53 52 52 51 51 51 50 48 46 45 47 49 49 47 46 46 46 45 43 42 42 43 43 44 44 44 45 45 45 44 43 42 41 39 38 38
52 53 53 54 54 54 53 51 50 48 46 46 47 46 45 45 47 48 48 46 46 46 46 45 42 41 42 42 43 43 43 44 45 45 44 43 42 41 39 38 38 39
51 52 52 54 54 54 53 50 47 45 43 43 44 45 45 45 47 48 48 47 46 45 45 43 41 40 40 41 41 41 42 43 43 43 42 42 40 39 38 38 39 38
48 50 51 53 55 55 54 51 47 44 42 41 41 43 44 45 47 49 50 48 46 44 43 42 40 38 39 39 39 39 40 41 41 41 42 41 40 39 39 39 38 37
47 48 49 51 53 55 55 54 50 47 43 41 40 41 43 44 46 49 51 51 49 46 44 43 41 39 38 38 38 39 40 40 40 41 42 41 41 41 40 39 38 37
46 47 48 49 51 52 54 54 52 49 46 43 41 41 42 44 46 48 51 52 52 50 49 47 45 42 40 40 40 39 40 40 41 42 42 42 42 41 41 39 38 37

ECMWFNIL_700_spd_141.txt.gz
Wind_Speed
41 41 41 39 38 37 38 40 43 45 45 44 42 42 41 41 41 42 43 43 43 44 44 46 47 48 49 49 49 49 49 49 48 48 48 48 47 46 46 45 45 45
40 40 40 39 38 38 40 42 43 43 42 41 40 40 40 41 40 41 42 43 43 44 44 45 46 47 48 50 51 51 52 51 50 50 50 50 49 48 47 46 45 45
39 39 38 38 38 39 40 40 39 39 38 38 38 38 39 39 40 40 41 42 43 43 43 44 44 45 46 47 49 51 52 52 52 52 53 53 52 50 49 48 47 46
37 38 38 38 38 39 40 39 37 36 35 35 35 36 37 38 39 40 40 40 41 42 41 42 42 43 44 44 45 47 49 49 50 50 52 53 52 51 50 49 49 48
38 39 39 39 39 40 39 38 37 35 34 34 34 35 35 35 37 37 37 38 39 39 40 40 40 41 42 43 44 45 46 47 47 48 49 51 51 50 49 49 49 49
39 39 40 40 41 40 39 37 36 35 34 34 34 34 34 34 34 34 34 35 36 37 38 39 40 41 42 44 46 46 47 47 47 47 48 49 49 49 48 48 48 48
37 38 39 41 41 40 39 37 35 35 34 34 34 33 33 34 34 33 33 35 36 38 39 40 41 43 44 45 47 47 47 46 46 46 46 47 47 48 48 47 47 47
33 35 37 39 39 39 38 37 36 36 36 35 34 34 34 35 35 34 35 36 38 39 40 41 42 43 44 45 46 47 46 45 45 45 45 46 47 47 47 47 47 46
32 33 35 36 37 38 38 37 38 37 37 37 36 35 35 35 35 36 37 38 39 40 40 40 41 41 42 43 45 45 45 45 45 45 45 46 47 47 46 46 46 47
33 33 34 36 37 37 37 37 37 36 35 35 35 34 34 35 35 36 36 38 39 40 40 41 41 41 42 43 44 45 45 45 45 45 45 45 46 46 45 45 46 46
31 32 33 34 35 35 35 34 34 33 33 32 32 32 32 32 33 34 35 37 38 40 41 42 43 43 44 44 44 45 45 45 45 45 45 45 45 45 45 44 44 45
30 31 31 32 31 31 31 31 31 31 30 29 29 28 27 28 29 30 32 34 35 37 40 41 42 43 45 45 45 45 45 45 45 45 44 44 44 44 44 43 43 44
30 31 31 31 30 30 30 30 29 29 28 28 27 27 26 26 27 29 30 32 33 34 36 38 40 41 43 44 44 43 44 44 44 44 44 44 44 43 43 43 43 43
30 31 31 31 32 33 33 31 30 30 29 30 30 30 30 30 32 33 34 35 35 35 35 36 38 40 41 42 42 42 43 43 43 43 44 44 44 43 43 43 43 43
29 30 32 33 35 37 38 37 36 35 35 35 36 36 37 37 38 39 39 39 40 39 39 39 40 41 42 42 43 43 43 43 44 44 44 44 44 44 43 43 43 42
28 30 32 35 37 40 42 43 42 42 41 41 41 42 42 43 44 44 44 44 44 44 44 44 43 43 43 44 44 44 44 44 44 45 44 44 45 45 44 43 42 42
31 32 34 37 39 42 44 46 47 47 45 44 43 44 45 45 46 47 47 47 48 48 47 47 47 46 46 47 47 46 45 45 45 45 45 45 46 46 45 43 42 42
40 40 41 43 45 47 48 49 50 50 49 48 47 47 47 47 47 47 47 49 50 51 50 49 49 49 49 49 49 48 47 47 47 47 47 47 47 47 46 45 43 42
47 47 48 49 50 51 52 53 52 52 51 50 49 49 48 48 48 47 47 48 49 51 51 51 51 51 51 51 50 49 48 47 47 47 47 48 48 47 46 46 45 43
47 48 49 50 52 53 54 55 54 52 51 50 50 48 47 47 46 45 45 45 46 46 47 48 48 48 50 51 51 50 49 48 48 48 48 48 48 48 47 46 45 44
46 45 46 46 47 47 47 47 47 47 47 47 47 46 45 44 44 43 42 41 41 41 42 43 43 45 47 49 50 50 49 49 49 48 48 47 47 47 47 46 45 44
46 45 44 44 44 43 41 41 41 42 43 44 44 43 42 42 41 41 40 39 38 39 40 40 41 43 46 47 49 50 49 49 49 48 48 47 47 47 46 46 45 45
46 46 45 44 44 44 43 42 42 42 43 44 44 44 42 41 39 38 37 37 37 37 38 38 39 42 45 46 48 49 50 49 49 49 48 48 47 46 46 46 45 45
47 47 46 45 45 45 46 45 44 44 44 44 45 45 43 41 40 38 36 35 36 36 37 37 37 40 44 46 47 49 50 51 51 50 50 50 48 46 45 45 45 45
47 47 47 47 46 46 47 47 47 46 45 45 45 45 44 42 41 39 37 35 35 35 36 37 37 39 42 45 47 49 51 51 52 52 53 51 48 46 45 45 45 44
44 45 45 46 46 47 47 48 48 48 48 47 47 46 45 44 42 41 40 38 36 35 35 36 37 38 40 43 46 49 51 52 53 54 53 51 49 47 46 45 44 43